DECAYED
Showing default

FLOCK 4Y 28, 55033 (Decayed)

Orbit data source: Space-Track

FLOCK 4Y 28, 55033 was a payload satellite owned by Planet (US) in LEO that was launched on Tue, 03 Jan 2023 UTC via an FALCON 9 launch vehicle from the Air Force Eastern Test Range (AFETR). Payload-class satellites include a variety of spacecraft equipped with specific instruments for various scientific and technological missions. These include communications satellites like Starlink; space stations such as the ISS; scientific satellites like the Hubble; Earth observation satellites from companies like Planet Labs, Umbra, and HawkEye 360; GPS; miniature CubeSats for education and research; and military/defense satellites.

Not visible in the next 10 days
Identifier
55033, 2023-001AA
Orbit
Decayed
Country
Flag of USUS
Related business
Manufacturer
Planet
Mission
Decayed Commercial Imaging
Bus & Motor
CUBESAT 3U, Unknown motor
Mass
5.7 kg wet, 5.7 kg dry
Launch date (UTC)
2023-01-03 (3 years ago)
Launch vehicle
FALCON 9
Launch site
Air Force Eastern Test Range (AFETR)
Object type
Payload
Rocket body
Debris
Shape & HBR
Box + 2 Pan, 1.0 m
Radar Cross Section
0.108 m², Medium (>0.1 m² and < 1m²)

Expand to show TLE details & history
Last TLE update: 10 months ago

TLE from 10 months ago
0 FLOCK 4Y 28
1 55033U 23001AA  25039.79262720  .10715426  24662-5  16520-2 0  9993
2 55033  97.3670 116.9908 0008320 284.7928  75.2447 16.34051190117645
Epoch: 2025-02-08T19:01Z
TLE epoch observation values (Epoch: 2025-02-08T19:01:22.990Z)
Latitude
0.00007°
Longitude
52.50958°
Altitude
183.533 km
Speed
7.797 km/s
True Right ascension
07h 47m 57s
True Declination
0° 00' 00"
Sunlit
Object was in full shadow at epoch
Visualization orbit readout
Latitude
Unknown
Longitude
Unknown
Altitude
Unknown
Speed
Unknown
Apparent Right ascension
Unknown
Apparent Declination
Unknown
Sunlit
N/A
Visualization observer readout
Local Sidereal Time
20:38:15
Azimuth
Unknown
Elevation
Unknown
Doppler factor
Unknown
Orbital elements
Apogee altitude
183.944 km
Perigee altitude
173.034 km
Semi-major axis
6,556.626 km
Eccentricity
0.00083
Inclination
97.367°
RAAN
116.9908°
Arg. of periapsis
284.7928°
True anomaly
75.33692°
Mean anomaly
75.2447°
Eccentric anomaly
75.29081°
Mean motion
4.08811 °/min
Orbital period
88.06 mins
BSTAR
0.001652
Loading maneuver chart data...
Computing Atmospheric mass density...

Documentation

Showing up to 5 results
|